VOE7JT LEPA-LEXJ

Flight info

Callsign VOE7JT
Flight time 1h 7m
Altitude 32000
Route DRAGO DCT PAPOS DCT UMURE DCT XIKEN DCT KARES DCT ARBEK DCT REBUL DCT GEMAS DCT ALOSU DCT GRAUS DCT POSSY/N0429F330 M601 PPN/N0393F270 M601 BLV
Aircraft A320/M-SDE3FGHIRWY/LB1

Departure

Time 2026-04-21 17:35
Airport Palma de Mallorca Airport (LEPA)

Arrival

Time 2026-04-21 18:42
Airport Seve Ballesteros-Santander Airport (LEXJ)
Time Latitude Longitude Altitude Speed Heading
2026-04-21 17:03 39.54555 2.73326 30 ft 0 kts 346°
2026-04-21 17:24 39.54554 2.73327 30 ft 2 kts 346°
2026-04-21 17:24 39.54533 2.73333 30 ft 4 kts 348°
2026-04-21 17:25 39.54508 2.73333 30 ft 4 kts 27°
2026-04-21 17:25 39.54490 2.73314 30 ft 1 kts 58°
2026-04-21 17:25 39.54490 2.73313 30 ft 0 kts 58°
2026-04-21 17:28 39.54531 2.73403 30 ft 22 kts 58°
2026-04-21 17:28 39.54613 2.73563 30 ft 21 kts 53°
2026-04-21 17:28 39.54682 2.73716 30 ft 18 kts 62°
2026-04-21 17:29 39.54744 2.73850 30 ft 17 kts 58°
2026-04-21 17:29 39.54801 2.73971 30 ft 15 kts 55°
2026-04-21 17:29 39.54883 2.73978 30 ft 9 kts 327°
2026-04-21 17:29 39.54894 2.73968 30 ft 0 kts 324°
2026-04-21 17:30 39.54909 2.73959 30 ft 12 kts 345°
2026-04-21 17:30 39.54987 2.74002 30 ft 12 kts 343°
2026-04-21 17:30 39.55108 2.73906 30 ft 30 kts 327°
2026-04-21 17:31 39.55297 2.73757 30 ft 24 kts 328°
2026-04-21 17:31 39.55433 2.73652 30 ft 20 kts 330°
2026-04-21 17:31 39.55551 2.73558 30 ft 20 kts 328°
2026-04-21 17:31 39.55656 2.73509 30 ft 13 kts 26°
2026-04-21 17:32 39.55702 2.73597 30 ft 14 kts 59°
2026-04-21 17:32 39.55797 2.73800 30 ft 31 kts 59°
2026-04-21 17:32 39.55911 2.74040 30 ft 32 kts 58°
2026-04-21 17:32 39.56000 2.74217 30 ft 18 kts 43°
2026-04-21 17:33 39.56097 2.74305 30 ft 17 kts 34°
2026-04-21 17:33 39.56195 2.74372 30 ft 17 kts
2026-04-21 17:33 39.56219 2.74243 30 ft 14 kts 239°
2026-04-21 17:33 39.56216 2.74236 30 ft 0 kts 239°
2026-04-21 17:34 39.56211 2.74225 30 ft 11 kts 239°
2026-04-21 17:34 39.56044 2.73873 30 ft 80 kts 238°
2026-04-21 17:34 39.55651 2.73042 30 ft 134 kts 238°
2026-04-21 17:34 39.55098 2.71878 282 ft 157 kts 239°
2026-04-21 17:35 39.54523 2.70676 907 ft 159 kts 237°
2026-04-21 17:35 39.53926 2.69429 1478 ft 167 kts 237°
2026-04-21 17:35 39.53325 2.68115 2083 ft 169 kts 238°
2026-04-21 17:35 39.52695 2.66797 2537 ft 182 kts 234°
2026-04-21 17:36 39.51944 2.65351 2816 ft 204 kts 233°
2026-04-21 17:36 39.51096 2.63754 3243 ft 221 kts 233°
2026-04-21 17:36 39.50219 2.62089 3976 ft 224 kts 234°
2026-04-21 17:36 39.49351 2.60427 4747 ft 226 kts 234°
2026-04-21 17:37 39.48471 2.58725 5514 ft 228 kts 234°
2026-04-21 17:37 39.47583 2.57000 6281 ft 230 kts 235°
2026-04-21 17:37 39.46704 2.55286 7002 ft 232 kts 235°
2026-04-21 17:37 39.45807 2.53532 7736 ft 234 kts 236°
2026-04-21 17:38 39.45019 2.51665 8281 ft 246 kts 256°
2026-04-21 17:38 39.45102 2.49371 8597 ft 271 kts 291°
2026-04-21 17:38 39.46261 2.47424 9091 ft 285 kts 322°
2026-04-21 17:38 39.47895 2.45918 9865 ft 289 kts 324°
2026-04-21 17:39 39.49581 2.44412 10378 ft 303 kts 324°
2026-04-21 17:39 39.51387 2.42798 10625 ft 325 kts 324°
2026-04-21 17:39 39.53275 2.41103 11186 ft 334 kts 324°
2026-04-21 17:39 39.55129 2.39315 11880 ft 337 kts 316°
2026-04-21 17:40 39.56772 2.37124 12619 ft 339 kts 312°
2026-04-21 17:40 39.58393 2.34908 13356 ft 342 kts 311°
2026-04-21 17:40 39.60041 2.32656 14038 ft 345 kts 311°
2026-04-21 17:40 39.61704 2.30383 14680 ft 347 kts 311°
2026-04-21 17:41 39.63360 2.28121 15312 ft 349 kts 311°
2026-04-21 17:41 39.65045 2.25816 15950 ft 352 kts 311°
2026-04-21 17:41 39.66737 2.23500 16590 ft 354 kts 311°
2026-04-21 17:41 39.68422 2.21193 17216 ft 356 kts 311°
2026-04-21 17:42 39.70138 2.18844 17845 ft 359 kts 311°
2026-04-21 17:42 39.71863 2.16485 18421 ft 361 kts 311°
2026-04-21 17:42 39.73598 2.14106 18947 ft 364 kts 311°
2026-04-21 17:42 39.75357 2.11694 19476 ft 366 kts 311°
2026-04-21 17:43 39.77120 2.09276 19998 ft 369 kts 311°
2026-04-21 17:43 39.78874 2.06865 20512 ft 371 kts 311°
2026-04-21 17:43 39.80662 2.04405 21008 ft 374 kts 311°
2026-04-21 17:43 39.82463 2.01923 21495 ft 377 kts 311°
2026-04-21 17:44 39.84246 1.99464 21966 ft 379 kts 311°
2026-04-21 17:44 39.86055 1.96961 22460 ft 382 kts 311°
2026-04-21 17:44 39.87885 1.94427 22937 ft 384 kts 311°
2026-04-21 17:44 39.89725 1.91879 23402 ft 387 kts 311°
2026-04-21 17:45 39.91559 1.89343 23767 ft 389 kts 311°
2026-04-21 17:45 39.93421 1.86771 23902 ft 390 kts 311°
2026-04-21 17:45 39.95284 1.84195 23917 ft 389 kts 311°
2026-04-21 17:45 39.97144 1.81622 23920 ft 389 kts 311°
2026-04-21 17:46 39.99022 1.79057 23920 ft 390 kts 314°
2026-04-21 17:46 40.01119 1.76861 23921 ft 393 kts 324°
2026-04-21 17:46 40.03550 1.75154 23926 ft 397 kts 335°
2026-04-21 17:46 40.06197 1.74074 23925 ft 399 kts 341°
2026-04-21 17:47 40.08880 1.73064 23923 ft 399 kts 341°
2026-04-21 17:47 40.11515 1.72068 23925 ft 399 kts 341°
2026-04-21 17:47 40.14206 1.71049 23946 ft 401 kts 341°
2026-04-21 17:47 40.16889 1.70036 24338 ft 403 kts 341°
2026-04-21 17:48 40.18676 1.69363 24604 ft 404 kts 341°
2026-04-21 17:48 40.22286 1.68006 25109 ft 406 kts 341°
2026-04-21 17:48 40.25019 1.66980 25501 ft 408 kts 341°
2026-04-21 17:48 40.27758 1.65950 25871 ft 410 kts 341°
2026-04-21 17:49 40.30525 1.64911 26239 ft 413 kts 341°
2026-04-21 17:49 40.33259 1.63885 26599 ft 415 kts 341°
2026-04-21 17:49 40.36049 1.62837 26946 ft 417 kts 341°
2026-04-21 17:49 40.38860 1.61777 27298 ft 419 kts 341°
2026-04-21 17:50 40.40699 1.61082 27523 ft 420 kts 341°
2026-04-21 17:50 40.44475 1.59651 27982 ft 423 kts 341°
2026-04-21 17:50 40.47292 1.58586 28316 ft 425 kts 341°
2026-04-21 17:50 40.50146 1.57510 28661 ft 427 kts 341°
2026-04-21 17:51 40.53009 1.56425 28999 ft 429 kts 341°
2026-04-21 17:51 40.55888 1.55333 29326 ft 431 kts 341°
2026-04-21 17:51 40.58753 1.54247 29643 ft 433 kts 341°
2026-04-21 17:51 40.61647 1.53147 29944 ft 435 kts 341°
2026-04-21 17:52 40.64565 1.52036 30206 ft 437 kts 341°
2026-04-21 17:52 40.67497 1.50919 30456 ft 438 kts 341°
2026-04-21 17:52 40.70447 1.49795 30706 ft 440 kts 341°
2026-04-21 17:52 40.73360 1.48686 30949 ft 441 kts 341°
2026-04-21 17:53 40.76331 1.47556 31219 ft 442 kts 341°
2026-04-21 17:53 40.79251 1.46443 31571 ft 441 kts 341°
2026-04-21 17:53 40.82202 1.45319 31855 ft 440 kts 341°
2026-04-21 17:53 40.85146 1.44195 31921 ft 440 kts 341°
2026-04-21 17:54 40.91002 1.41952 31930 ft 439 kts 341°
2026-04-21 17:54 40.96887 1.39691 31916 ft 438 kts 341°
2026-04-21 17:55 41.02735 1.37440 31923 ft 439 kts 341°
2026-04-21 17:55 41.08630 1.35166 31915 ft 439 kts 341°
2026-04-21 17:56 41.14463 1.32921 31921 ft 438 kts 341°
2026-04-21 17:56 41.20293 1.30665 31927 ft 438 kts 341°
2026-04-21 17:57 41.23135 1.29222 31918 ft 433 kts 328°
2026-04-21 17:57 41.25548 1.26882 32136 ft 428 kts 313°
2026-04-21 17:57 41.27537 1.23946 32389 ft 427 kts 309°
2026-04-21 17:57 41.29461 1.20986 32643 ft 426 kts 309°
2026-04-21 17:58 41.31401 1.17989 32860 ft 426 kts 309°
2026-04-21 17:58 41.33323 1.15006 32913 ft 418 kts 308°
2026-04-21 17:58 41.37023 1.09243 32913 ft 406 kts 308°
2026-04-21 17:59 41.40693 1.03525 32902 ft 404 kts 308°
2026-04-21 17:59 41.44322 0.97857 32893 ft 404 kts 308°
2026-04-21 18:00 41.47965 0.92140 32892 ft 404 kts 308°
2026-04-21 18:00 41.51614 0.86422 32876 ft 404 kts 308°
2026-04-21 18:01 41.55255 0.80722 32871 ft 404 kts 308°
2026-04-21 18:01 41.58907 0.74996 32875 ft 404 kts 308°
2026-04-21 18:02 41.62532 0.69283 32879 ft 403 kts 308°
2026-04-21 18:02 41.66137 0.63584 32879 ft 402 kts 308°
2026-04-21 18:03 41.69748 0.57881 32876 ft 402 kts 308°
2026-04-21 18:03 41.73362 0.52153 32874 ft 402 kts 308°
2026-04-21 18:04 41.76947 0.46452 32872 ft 402 kts 308°
2026-04-21 18:04 41.79958 0.41664 32871 ft 402 kts 308°
2026-04-21 18:05 41.83572 0.35915 32866 ft 403 kts 307°
2026-04-21 18:05 41.87168 0.30181 32859 ft 403 kts 307°
2026-04-21 18:06 41.90782 0.24407 32851 ft 403 kts 307°
2026-04-21 18:06 41.94376 0.18650 32854 ft 403 kts 307°
2026-04-21 18:07 41.97884 0.13016 32850 ft 403 kts 307°
2026-04-21 18:07 42.01466 0.07257 32860 ft 403 kts 307°
2026-04-21 18:08 42.05073 0.01440 32867 ft 403 kts 307°
2026-04-21 18:08 42.08663 -0.04359 32865 ft 404 kts 307°
2026-04-21 18:09 42.12261 -0.10197 32866 ft 405 kts 307°
2026-04-21 18:09 42.15822 -0.15963 32873 ft 406 kts 307°
2026-04-21 18:10 42.19383 -0.21745 32855 ft 407 kts 307°
2026-04-21 18:10 42.22390 -0.28117 32887 ft 401 kts 294°
2026-04-21 18:11 42.24852 -0.34842 32886 ft 401 kts 294°
2026-04-21 18:11 42.27332 -0.41585 32878 ft 401 kts 294°
2026-04-21 18:12 42.29808 -0.48337 32880 ft 401 kts 294°
2026-04-21 18:12 42.32266 -0.55081 32874 ft 401 kts 294°
2026-04-21 18:13 42.34720 -0.61827 32862 ft 400 kts 294°
2026-04-21 18:13 42.37181 -0.68598 32873 ft 400 kts 294°
2026-04-21 18:14 42.40847 -0.78714 32856 ft 400 kts 294°
2026-04-21 18:15 42.43309 -0.85542 32849 ft 401 kts 294°
2026-04-21 18:15 42.45753 -0.92345 32841 ft 402 kts 293°
2026-04-21 18:16 42.48199 -0.99163 32840 ft 402 kts 293°
2026-04-21 18:16 42.50649 -1.05988 32842 ft 403 kts 294°
2026-04-21 18:17 42.53090 -1.12812 32830 ft 403 kts 293°
2026-04-21 18:17 42.55533 -1.19649 32835 ft 403 kts 293°
2026-04-21 18:18 42.57976 -1.26500 32816 ft 403 kts 293°
2026-04-21 18:18 42.60393 -1.33325 32811 ft 403 kts 293°
2026-04-21 18:19 42.62812 -1.40180 32806 ft 403 kts 293°
2026-04-21 18:19 42.65241 -1.47050 32804 ft 403 kts 293°
2026-04-21 18:20 42.67667 -1.53899 32265 ft 402 kts 292°
2026-04-21 18:20 42.68869 -1.57308 31750 ft 398 kts 292°
2026-04-21 18:20 42.70044 -1.60651 31261 ft 395 kts 292°
2026-04-21 18:20 42.71223 -1.64014 30774 ft 391 kts 292°
2026-04-21 18:21 42.72371 -1.67297 30300 ft 388 kts 292°
2026-04-21 18:21 42.73572 -1.70570 29825 ft 386 kts 297°
2026-04-21 18:21 42.75016 -1.73673 29329 ft 383 kts 299°
2026-04-21 18:21 42.76444 -1.76695 28883 ft 378 kts 299°
2026-04-21 18:22 42.77856 -1.79687 28452 ft 373 kts 299°
2026-04-21 18:22 42.79249 -1.82650 28021 ft 368 kts 299°
2026-04-21 18:22 42.80619 -1.85576 27600 ft 364 kts 298°
2026-04-21 18:22 42.81975 -1.88478 27170 ft 361 kts 298°
2026-04-21 18:23 42.83316 -1.91343 26767 ft 358 kts 298°
2026-04-21 18:23 42.84652 -1.94193 26346 ft 355 kts 298°
2026-04-21 18:23 42.85980 -1.97023 25922 ft 353 kts 298°
2026-04-21 18:23 42.87297 -1.99833 25498 ft 351 kts 298°
2026-04-21 18:24 42.88593 -2.02600 25064 ft 350 kts 298°
2026-04-21 18:24 42.89897 -2.05395 24636 ft 348 kts 298°
2026-04-21 18:24 42.91200 -2.08189 24208 ft 348 kts 298°
2026-04-21 18:24 42.92496 -2.10971 23747 ft 347 kts 298°
2026-04-21 18:25 42.93794 -2.13761 23301 ft 348 kts 298°
2026-04-21 18:25 42.95086 -2.16540 22817 ft 346 kts 298°
2026-04-21 18:25 42.96349 -2.19258 22381 ft 344 kts 299°
2026-04-21 18:25 42.97628 -2.22009 21927 ft 342 kts 298°
2026-04-21 18:26 42.98924 -2.24791 21512 ft 341 kts 299°
2026-04-21 18:26 43.00203 -2.27520 21092 ft 339 kts 299°
2026-04-21 18:26 43.01478 -2.30236 20670 ft 338 kts 298°
2026-04-21 18:26 43.02732 -2.32904 20253 ft 338 kts 299°
2026-04-21 18:27 43.04007 -2.35614 19831 ft 338 kts 299°
2026-04-21 18:27 43.05277 -2.38313 19425 ft 338 kts 299°
2026-04-21 18:27 43.06549 -2.41021 19018 ft 338 kts 299°
2026-04-21 18:27 43.07818 -2.43734 18610 ft 338 kts 299°
2026-04-21 18:28 43.09074 -2.46430 18190 ft 338 kts 299°
2026-04-21 18:28 43.10342 -2.49160 17744 ft 339 kts 299°
2026-04-21 18:28 43.11609 -2.51889 17333 ft 337 kts 299°
2026-04-21 18:28 43.12862 -2.54578 16935 ft 335 kts 299°
2026-04-21 18:29 43.14115 -2.57259 16542 ft 334 kts 299°
2026-04-21 18:29 43.15370 -2.59947 16148 ft 333 kts 299°
2026-04-21 18:29 43.16612 -2.62622 15757 ft 331 kts 299°
2026-04-21 18:29 43.17830 -2.65255 15373 ft 330 kts 299°
2026-04-21 18:30 43.19060 -2.67919 15001 ft 330 kts 299°
2026-04-21 18:30 43.20286 -2.70576 14597 ft 330 kts 300°
2026-04-21 18:30 43.21522 -2.73240 14222 ft 330 kts 300°
2026-04-21 18:30 43.22741 -2.75861 13842 ft 330 kts 300°
2026-04-21 18:31 43.23979 -2.78529 13439 ft 330 kts 300°
2026-04-21 18:31 43.25214 -2.81205 13026 ft 329 kts 300°
2026-04-21 18:31 43.26423 -2.83831 12634 ft 328 kts 300°
2026-04-21 18:31 43.27639 -2.86474 12239 ft 326 kts 300°
2026-04-21 18:32 43.28848 -2.89101 11842 ft 325 kts 300°
2026-04-21 18:32 43.29851 -2.91859 11437 ft 320 kts 286°
2026-04-21 18:32 43.30305 -2.94826 11057 ft 315 kts 271°
2026-04-21 18:32 43.30280 -2.97789 10657 ft 312 kts 265°
2026-04-21 18:33 43.30191 -3.00780 10276 ft 310 kts 265°
2026-04-21 18:33 43.30108 -3.03711 10087 ft 301 kts 265°
2026-04-21 18:33 43.30030 -3.06499 9917 ft 293 kts 265°
2026-04-21 18:33 43.29949 -3.09302 9568 ft 290 kts 265°
2026-04-21 18:34 43.29869 -3.12036 9188 ft 288 kts 265°
2026-04-21 18:34 43.29788 -3.14784 8798 ft 287 kts 265°
2026-04-21 18:34 43.29705 -3.17492 8453 ft 285 kts 265°
2026-04-21 18:34 43.29622 -3.20200 8056 ft 284 kts 265°
2026-04-21 18:35 43.29565 -3.22034 7777 ft 283 kts 265°
2026-04-21 18:35 43.29456 -3.25576 7365 ft 278 kts 265°
2026-04-21 18:35 43.29375 -3.28209 7108 ft 275 kts 265°
2026-04-21 18:35 43.29347 -3.30835 6834 ft 275 kts 273°
2026-04-21 18:36 43.29729 -3.33409 6575 ft 276 kts 286°
2026-04-21 18:36 43.30403 -3.35876 6315 ft 273 kts 288°
2026-04-21 18:36 43.31064 -3.38299 6054 ft 269 kts 288°
2026-04-21 18:36 43.31713 -3.40689 5779 ft 264 kts 288°
2026-04-21 18:37 43.32346 -3.43032 5500 ft 259 kts 287°
2026-04-21 18:37 43.32951 -3.45336 5233 ft 254 kts 287°
2026-04-21 18:37 43.33526 -3.47609 4955 ft 250 kts 286°
2026-04-21 18:37 43.34084 -3.49844 4698 ft 246 kts 287°
2026-04-21 18:38 43.34653 -3.52043 4433 ft 241 kts 288°
2026-04-21 18:38 43.35229 -3.54192 4160 ft 237 kts 288°
2026-04-21 18:38 43.35799 -3.56294 3891 ft 234 kts 288°
2026-04-21 18:38 43.36371 -3.58422 3396 ft 240 kts 288°
2026-04-21 18:39 43.36942 -3.60547 3054 ft 240 kts 289°
2026-04-21 18:39 43.37522 -3.62695 2713 ft 238 kts 289°
2026-04-21 18:39 43.38081 -3.64767 2406 ft 223 kts 289°
2026-04-21 18:39 43.38602 -3.66699 2152 ft 209 kts 289°
2026-04-21 18:40 43.39102 -3.68558 1869 ft 204 kts 289°
2026-04-21 18:40 43.39585 -3.70354 1620 ft 193 kts 289°
2026-04-21 18:40 43.39890 -3.71489 1437 ft 182 kts 289°
2026-04-21 18:40 43.40442 -3.73545 1148 ft 166 kts 290°
2026-04-21 18:41 43.40824 -3.74968 934 ft 153 kts 290°
2026-04-21 18:41 43.41186 -3.76320 700 ft 148 kts 291°
2026-04-21 18:41 43.41538 -3.77634 511 ft 145 kts 291°
2026-04-21 18:41 43.41885 -3.78932 298 ft 144 kts 292°
2026-04-21 18:42 43.42226 -3.80215 118 ft 143 kts 292°
2026-04-21 18:42 43.42567 -3.81453 27 ft 131 kts 291°
2026-04-21 18:42 43.42815 -3.82411 20 ft 80 kts 290°
2026-04-21 18:42 43.42932 -3.82853 19 ft 22 kts 289°
2026-04-21 18:43 43.42932 -3.82939 19 ft 6 kts 261°
2026-04-21 18:43 43.42926 -3.82972 19 ft 0 kts 253°
2026-04-21 19:04 43.42925 -3.82976 19 ft 3 kts 252°
2026-04-21 19:04 43.42909 -3.83014 20 ft 4 kts 227°
2026-04-21 19:04 43.42884 -3.83034 19 ft 4 kts 199°
2026-04-21 19:04 43.42865 -3.83037 19 ft 4 kts 185°
2026-04-21 19:11 43.42843 -3.83036 19 ft 3 kts 168°
2026-04-21 19:11 43.42828 -3.83026 21 ft 2 kts 149°